Tracking 19176 objects as of 26-May-2018
HD Live streaming from Space Station
objects crossing your sky now

MOLNIYA 3-20

Track MOLNIYA 3-20 now!
MOLNIYA 3-20 is classified as:


NORAD ID: 13875
Int'l Code: 1983-015A
Perigee: 2,219.0 km
Apogee: 38,184.8 km
Inclination: 63.6 °
Period: 718.5 minutes
Semi major axis: 26572 km
RCS: 14.2775 m2 (large)
Launch date: March 11, 1983
Source: Commonwealth of Independent States (former USSR) (CIS)
Launch site: PLESETSK MISSILE AND SPACE COMPLEX (PKMTR)
aabbcc
Your satellite tracking list
Your tracking list is empty




NASA's NSSDC Master Catalog

Two Line Element Set (TLE):
1 13875U 83015A   18145.28181137 -.00000422 +00000-0 -44946-1 0  9999
2 13875 063.6496 186.5702 6767372 259.5930 142.0341 02.00421101193931
Source of the keplerian elements: AFSPC